Volver al catálogo

STARLINK-3268

ActivoComunicacionesVLEO
NORAD 50190·PAYLOAD·🇺🇸 United States

Lanzado Dec 18, 2021 desde Vandenberg Space Force Base

Loading…

Próximos Pases (próximas 24 horas)

TLE

ActualizadoSource: CelesTrak SupGP

Época: Sep 14, 2026, 14:24 UTC

1 50190C 21125AL  26257.60048611 -.00000525  00000+0 -15500-4 0  2579
2 50190  53.1578  94.9568 0001129  95.2313 181.9252 15.34394507    13

Sigue STARLINK-3268 en tiempo real con AllMySat

Download on the App Store